TimeEDT,TemperatureF,Dew PointF,Humidity,Sea Level PressureIn,VisibilityMPH,Wind Direction,Wind SpeedMPH,Gust SpeedMPH,PrecipitationIn,Events,Conditions,WindDirDegrees,DateUTC
12:15 AM,69.4,41.9,37,29.82,10.0,NW,8.1,-,N/A,,Scattered Clouds,320,2013-05-16 04:15:00
12:55 AM,67.3,40.5,38,29.82,10.0,NW,3.5,-,N/A,,Clear,310,2013-05-16 04:55:00
1:15 AM,66.6,41.2,40,29.82,10.0,Calm,Calm,-,N/A,,Clear,0,2013-05-16 05:15:00
1:34 AM,65.3,41.2,41,29.82,10.0,Calm,Calm,-,N/A,,Clear,0,2013-05-16 05:34:00
1:55 AM,64.6,41.4,43,29.83,10.0,Calm,Calm,-,N/A,,Clear,0,2013-05-16 05:55:00
2:15 AM,63.3,41.9,46,29.83,10.0,WNW,3.5,-,N/A,,Clear,290,2013-05-16 06:15:00
2:34 AM,62.6,42.6,48,29.83,10.0,West,3.5,-,N/A,,Clear,270,2013-05-16 06:34:00
2:55 AM,61.5,43.0,51,29.83,10.0,Calm,Calm,-,N/A,,Clear,0,2013-05-16 06:55:00
3:14 AM,59.0,43.7,57,29.83,10.0,Calm,Calm,-,N/A,,Clear,0,2013-05-16 07:14:00
3:35 AM,58.1,43.9,59,29.83,10.0,Calm,Calm,-,N/A,,Clear,0,2013-05-16 07:35:00
3:55 AM,56.7,44.1,63,29.84,10.0,Calm,Calm,-,N/A,,Clear,0,2013-05-16 07:55:00
4:14 AM,56.5,44.2,64,29.84,10.0,Calm,Calm,-,N/A,,Clear,0,2013-05-16 08:14:00
4:35 AM,57.4,43.7,60,29.85,10.0,WNW,6.9,-,N/A,,Clear,300,2013-05-16 08:35:00
4:55 AM,58.3,43.7,58,29.85,10.0,WNW,8.1,-,N/A,,Clear,300,2013-05-16 08:55:00
5:14 AM,58.1,43.5,58,29.86,10.0,WNW,5.8,-,N/A,,Clear,290,2013-05-16 09:14:00
5:35 AM,58.1,43.7,59,29.86,10.0,West,3.5,-,N/A,,Clear,260,2013-05-16 09:35:00
5:55 AM,58.1,43.5,58,29.86,10.0,West,5.8,-,N/A,,Clear,280,2013-05-16 09:55:00
6:14 AM,58.1,43.3,58,29.86,10.0,WNW,8.1,-,N/A,,Clear,290,2013-05-16 10:14:00
6:35 AM,58.1,43.3,58,29.87,10.0,WNW,6.9,-,N/A,,Clear,290,2013-05-16 10:35:00
6:55 AM,58.6,43.7,58,29.87,10.0,WNW,6.9,-,N/A,,Clear,290,2013-05-16 10:55:00
7:15 AM,59.5,43.9,56,29.87,10.0,WNW,6.9,-,N/A,,Clear,290,2013-05-16 11:15:00
7:35 AM,61.2,43.7,53,29.88,10.0,West,5.8,-,N/A,,Clear,270,2013-05-16 11:35:00
7:55 AM,62.6,43.9,50,29.88,10.0,West,6.9,-,N/A,,Clear,260,2013-05-16 11:55:00
8:15 AM,63.7,43.7,48,29.89,10.0,West,6.9,-,N/A,,Clear,270,2013-05-16 12:15:00
8:34 AM,64.6,44.6,48,29.90,10.0,West,6.9,-,N/A,,Clear,260,2013-05-16 12:34:00
8:55 AM,66.4,43.5,44,29.90,10.0,West,6.9,-,N/A,,Clear,270,2013-05-16 12:55:00
9:14 AM,68.0,42.6,40,29.90,10.0,WNW,9.2,-,N/A,,Clear,300,2013-05-16 13:14:00
9:35 AM,69.8,42.8,38,29.90,10.0,West,5.8,-,N/A,,Clear,280,2013-05-16 13:35:00
9:55 AM,71.4,43.2,36,29.90,10.0,West,5.8,-,N/A,,Clear,280,2013-05-16 13:55:00
10:14 AM,73.4,42.4,33,29.90,10.0,WNW,5.8,-,N/A,,Clear,290,2013-05-16 14:14:00
10:35 AM,75.4,43.9,32,29.90,10.0,WSW,9.2,-,N/A,,Clear,250,2013-05-16 14:35:00
10:55 AM,76.6,43.9,31,29.90,10.0,WNW,9.2,-,N/A,,Clear,290,2013-05-16 14:55:00
11:15 AM,75.6,45.1,34,29.91,10.0,West,3.5,-,N/A,,Clear,280,2013-05-16 15:15:00
11:35 AM,76.6,44.8,32,29.91,10.0,NW,6.9,-,N/A,,Clear,310,2013-05-16 15:35:00
11:55 AM,77.0,45.1,32,29.91,10.0,WNW,5.8,-,N/A,,Clear,300,2013-05-16 15:55:00
12:15 PM,77.9,43.5,29,29.92,10.0,WNW,8.1,-,N/A,,Clear,300,2013-05-16 16:15:00
12:34 PM,77.7,44.2,30,29.92,10.0,WNW,8.1,16.1,N/A,,Clear,300,2013-05-16 16:34:00
12:55 PM,77.7,43.3,29,29.92,10.0,NW,8.1,-,N/A,,Clear,310,2013-05-16 16:55:00
1:15 PM,77.4,44.2,31,29.91,10.0,NW,9.2,-,N/A,,Clear,310,2013-05-16 17:15:00
1:34 PM,77.9,43.5,29,29.92,10.0,NNW,9.2,17.3,N/A,,Clear,330,2013-05-16 17:34:00
1:55 PM,77.9,43.3,29,29.91,10.0,NNW,10.4,-,N/A,,Clear,330,2013-05-16 17:55:00
2:14 PM,79.0,42.1,27,29.91,10.0,NW,10.4,16.1,N/A,,Clear,310,2013-05-16 18:14:00
2:35 PM,80.1,42.3,26,29.91,10.0,WNW,5.8,-,N/A,,Clear,290,2013-05-16 18:35:00
3:14 PM,79.5,43.7,28,29.91,10.0,North,6.9,-,N/A,,Clear,360,2013-05-16 19:14:00
3:35 PM,79.3,42.4,27,29.91,10.0,WNW,10.4,16.1,N/A,,Clear,290,2013-05-16 19:35:00
3:55 PM,79.9,42.6,27,29.92,10.0,WNW,8.1,17.3,N/A,,Clear,300,2013-05-16 19:55:00
4:14 PM,80.6,42.1,25,29.91,10.0,NNW,8.1,17.3,N/A,,Scattered Clouds,330,2013-05-16 20:14:00
4:35 PM,79.7,43.2,27,29.91,10.0,WSW,9.2,-,N/A,,Clear,250,2013-05-16 20:35:00
4:55 PM,78.1,45.7,32,29.92,10.0,East,5.8,-,N/A,,Clear,100,2013-05-16 20:55:00
5:15 PM,77.9,45.1,31,29.92,10.0,ESE,5.8,-,N/A,,Clear,110,2013-05-16 21:15:00
5:35 PM,77.5,44.1,30,29.92,10.0,East,8.1,-,N/A,,Clear,100,2013-05-16 21:35:00
6:15 PM,76.1,43.0,31,29.93,10.0,ENE,10.4,-,N/A,,Clear,70,2013-05-16 22:15:00
6:35 PM,75.6,42.8,31,29.93,10.0,ENE,12.7,16.1,N/A,,Clear,70,2013-05-16 22:35:00
6:54 PM,73.9,42.1,32,29.94,10.0,East,8.1,-,N/A,,Scattered Clouds,80,2013-05-16 22:54:00
7:15 PM,73.4,41.2,31,29.94,10.0,ENE,11.5,-,N/A,,Mostly Cloudy,70,2013-05-16 23:15:00
7:35 PM,72.9,41.0,32,29.95,10.0,ENE,10.4,-,N/A,,Scattered Clouds,60,2013-05-16 23:35:00
7:54 PM,71.2,41.0,33,29.95,10.0,ENE,12.7,-,N/A,,Clear,60,2013-05-16 23:54:00
8:15 PM,68.2,40.1,36,29.97,10.0,NE,11.5,17.3,N/A,,Clear,50,2013-05-17 00:15:00
8:35 PM,64.8,39.0,39,29.99,10.0,NE,13.8,-,N/A,,Clear,40,2013-05-17 00:35:00
8:55 PM,61.7,37.2,40,30.00,10.0,ENE,11.5,-,N/A,,Clear,60,2013-05-17 00:55:00
9:15 PM,60.1,36.1,41,30.01,10.0,NE,10.4,-,N/A,,Clear,50,2013-05-17 01:15:00
9:35 PM,59.0,37.0,44,30.02,10.0,NNE,9.2,-,N/A,,Clear,30,2013-05-17 01:35:00
9:55 PM,58.1,36.5,44,30.02,10.0,NE,10.4,-,N/A,,Clear,40,2013-05-17 01:55:00
10:15 PM,57.2,36.7,46,30.04,10.0,NE,10.4,17.3,N/A,,Clear,40,2013-05-17 02:15:00
10:35 PM,56.7,36.3,47,30.05,10.0,NE,11.5,19.6,N/A,,Clear,50,2013-05-17 02:35:00
10:55 PM,56.3,36.5,47,30.05,10.0,NE,9.2,-,N/A,,Clear,40,2013-05-17 02:55:00
11:15 PM,55.2,36.5,49,30.05,10.0,NNE,10.4,16.1,N/A,,Clear,30,2013-05-17 03:15:00
11:35 PM,54.5,36.9,51,30.06,10.0,NE,9.2,-,N/A,,Clear,40,2013-05-17 03:35:00
11:55 PM,53.6,36.9,53,30.07,10.0,NNE,9.2,17.3,N/A,,Clear,30,2013-05-17 03:55:00